Location: Stonelick Lake State Park
(39.2170°N, 84.0850°W)
Time: 21:16:57
(UTC-05:00)

Amateur Radio Satellites - All Passes

Search period start: 28 November 2014 20:46
Search period end: 29 November 2014 20:46
Location: Stonelick Lake State Park, 39.2170°N, 84.0850°W

Satellite Date Start Highest point End Downlink Frequencies (MHz)
Time Altitude Azimuth
Oscar 11 28 Nov 20:54:02 20:57:49 31° 70° (ENE) 21:01:37 145.826/435.025
FUNcube-1 28 Nov 20:55:01 20:57:00 13° 65° (ENE) 20:58:59 145.935
AISAT 28 Nov 21:01:28 21:02:58 12° 62° (ENE) 21:04:28 437.250
AIST 1 28 Nov 21:02:21 21:05:04 16° 288° (WNW) 21:07:49
COMPASS 1 28 Nov 21:03:40 21:07:50 88° 257° (WSW) 21:12:03 437.405
CANX-2 28 Nov 21:08:03 21:12:09 51° 260° (W) 21:16:17 2200.000
AIST 2 28 Nov 21:13:57 21:17:45 32° 309° (NW) 21:21:38 435.215
HUMSAT D 28 Nov 21:17:01 21:19:10 14° 65° (ENE) 21:21:19 437.325/437.525
GONETS M04 28 Nov 21:17:36 21:24:36 28° 278° (W) 21:31:34
PCSat 28 Nov 21:19:12 21:22:20 15° 317° (NW) 21:25:30 145.827
DX 1 28 Nov 21:23:05 21:27:24 62° 74° (ENE) 21:31:45 434.975-435.025
GOMX 1 28 Nov 21:23:50 21:28:29 56° 260° (W) 21:32:51 467.674
UWE-3 28 Nov 21:26:47 21:30:37 35° 72° (ENE) 21:34:26 435.000/436.395/437.385
CUBEBUG 2 28 Nov 21:32:44 21:36:49 49° 74° (ENE) 21:40:51 437.445
CUTE 1.7 + AOD 2 28 Nov 21:43:14 21:46:34 23° 265° (W) 21:49:55 437.475
RS-15 28 Nov 21:50:40 21:58:01 19° 15° (NNE) 22:05:30 29.354- 29.394
ZACube-1 28 Nov 21:54:35 21:58:44 64° 75° (ENE) 22:02:51 437.345
HO-68 28 Nov 21:57:44 22:03:41 28° 265° (W) 22:09:40 435.675
ANTELSAT 28 Nov 22:03:05 22:04:24 11° 91° (E) 22:05:44 437.575/2403.000
VELOX 1 28 Nov 22:06:25 22:10:47 56° 73° (ENE) 22:15:10 145.980
DOVE 4 28 Nov 22:06:27 22:10:14 26° 264° (W) 22:13:53 437.250
BRITE-PL 28 Nov 22:10:21 22:13:03 15° 267° (W) 22:15:40 437.365/2234.400
DELFI C3 28 Nov 22:11:43 22:15:30 37° 262° (W) 22:19:19 145.870
SEEDS 28 Nov 22:14:11 22:15:52 12° 269° (W) 22:17:33 437.485
ESTCUBE 1 28 Nov 22:16:43 22:20:33 27° 69° (ENE) 22:24:24 437.505/2401.250
50 SAT 28 Nov 22:18:14 22:22:11 58° 75° (ENE) 22:26:08 437.505
CINEMA 3 28 Nov 22:19:24 22:23:12 29° 263° (W) 22:26:54 145.822/145.860
UKube-1 28 Nov 22:21:06 22:24:54 30° 263° (W) 22:28:45 .
QB50P1 28 Nov 22:21:20 22:22:13 11° 91° (E) 22:23:06 145.935-145.965
AAUSAT CUBESAT 2 28 Nov 22:24:40 22:26:22 12° 269° (W) 22:28:03 437.432
FUNcube-1 28 Nov 22:28:53 22:32:57 49° 260° (W) 22:37:00 145.935
Oscar 11 28 Nov 22:30:44 22:34:00 21° 266° (W) 22:37:18 145.826/435.025
AISAT 28 Nov 22:34:33 22:39:01 69° 258° (WSW) 22:43:29 437.250
CUBEBUG 1 28 Nov 22:36:04 22:40:14 41° 72° (ENE) 22:44:24 437.445
ISS 28 Nov 22:38:00 22:41:16 71° 140° (SE) 22:44:33 145.825
POPSAT HIP 1 28 Nov 22:44:32 22:47:43 21° 95° (E) 22:50:54 437.405
HUMSAT D 28 Nov 22:50:38 22:54:36 45° 261° (W) 22:58:34 437.325/437.525
TIGRISAT 28 Nov 22:52:41 22:56:53 39° 98° (E) 23:01:10 435.000
DANDE 28 Nov 22:56:18 22:59:55 19° 75° (ENE) 23:04:14 436.750
DX 1 28 Nov 23:02:56 23:04:02 11° 269° (W) 23:05:08 434.975-435.025
UWE-3 28 Nov 23:04:30 23:07:17 17° 266° (W) 23:10:03 435.000/436.395/437.385
UNISAT 6 28 Nov 23:07:57 23:12:24 60° 101° (E) 23:16:56 437.425
CUBEBUG 2 28 Nov 23:11:58 23:13:47 13° 268° (W) 23:15:36 437.445
POLYITAN 1 28 Nov 23:19:18 23:23:27 53° 100° (E) 23:27:35 437.675
QB50P2 28 Nov 23:20:02 23:24:12 54° 100° (E) 23:28:20 145.880/145.840
DUCHIFAT 1 28 Nov 23:23:57 23:28:07 59° 101° (E) 23:32:16 145.980
TISAT 1 28 Nov 23:27:48 23:31:44 38° 72° (ENE) 23:35:41 437.305
ANTELSAT 28 Nov 23:37:07 23:41:34 65° 285° (WNW) 23:46:07 437.575/2403.000
NANOSAT C BR1 28 Nov 23:43:54 23:48:07 79° 284° (WNW) 23:52:20 145.865
VELOX 1 28 Nov 23:45:46 23:47:42 13° 269° (W) 23:49:38 145.980
SPROUT 28 Nov 23:47:15 23:51:28 55° 74° (ENE) 23:55:41 437.525
BUGSAT 1 28 Nov 23:48:21 23:52:26 85° 283° (WNW) 23:56:28 437.445
MaSat-1 28 Nov 23:53:21 23:55:11 20° 61° (ENE) 23:57:04 437.345
ESTCUBE 1 28 Nov 23:53:29 23:57:20 27° 264° (W) 00:01:13 437.505/2401.250
QB50P1 28 Nov 23:54:19 23:58:29 59° 286° (WNW) 00:02:37 145.935-145.965
CUSAT 1 28 Nov 23:58:17 00:03:23 82° 81° (E) 00:10:15 437.405
RS-15 29 Nov 00:03:36 00:14:17 47° 46° (NE) 00:25:20 29.354- 29.394
ITUPSAT 1 29 Nov 00:07:01 00:10:03 17° 64° (ENE) 00:13:05 437.325
CUBEBUG 1 29 Nov 00:13:53 00:16:46 17° 267° (W) 00:19:40 437.445
JUGNU 29 Nov 00:14:49 00:16:07 11° 179° (S) 00:17:26 437.505
ISS 29 Nov 00:15:48 00:18:13 19° 337° (NNW) 00:20:38 145.825
SWISSCUBE 29 Nov 00:15:54 00:19:36 23° 66° (ENE) 00:23:18 437.505
POPSAT HIP 1 29 Nov 00:19:57 00:23:39 30° 290° (WNW) 00:27:21 437.405
TIGRISAT 29 Nov 00:30:14 00:33:22 19° 293° (WNW) 00:36:32 435.000
DANDE 29 Nov 00:38:29 00:43:20 52° 263° (W) 00:49:48 436.750
AUBIESAT-1 29 Nov 00:43:57 00:48:02 62° 69° (ENE) 00:52:31 437.475
BEESAT 29 Nov 00:45:20 00:49:48 40° 71° (ENE) 00:54:17 436.000
UNISAT 6 29 Nov 00:46:35 00:48:42 13° 296° (WNW) 00:50:50 437.425
M-CUBED/EXP-1 PRIME 29 Nov 00:51:28 00:55:35 83° 71° (ENE) 01:00:07 437.505
POLYITAN 1 29 Nov 00:57:00 00:58:56 13° 296° (WNW) 01:00:52 437.675
QB50P2 29 Nov 00:57:46 00:59:38 13° 296° (WNW) 01:01:30 145.880/145.840
DUCHIFAT 1 29 Nov 01:02:00 01:03:28 12° 297° (WNW) 01:04:57 145.980
TISAT 1 29 Nov 01:04:54 01:07:42 17° 267° (W) 01:10:31 437.305
SPROUT 29 Nov 01:26:13 01:27:52 12° 269° (W) 01:29:31 437.525
ITUPSAT 1 29 Nov 01:42:49 01:47:30 52° 260° (W) 01:52:14 437.325
Oscar 19 29 Nov 01:42:53 01:47:47 41° 99° (E) 01:52:39 437.125/150
CUSAT 1 29 Nov 01:44:01 01:46:21 13° 270° (W) 01:48:55 437.405
SWISSCUBE 29 Nov 01:52:46 01:57:13 37° 262° (W) 02:01:41 437.505
KKS-1 29 Nov 01:56:48 02:01:01 45° 72° (ENE) 02:05:16 437.445
Gurwin Techsat 1B 29 Nov 01:57:31 01:59:19 12° 89° (E) 02:01:07 435.225
RS-15 29 Nov 02:16:03 02:26:53 55° 248° (WSW) 02:38:12 29.354- 29.394
SO-50 29 Nov 02:16:48 02:19:51 18° 109° (ESE) 02:22:58 436.795
SRMSAT 29 Nov 02:19:46 02:21:13 11° 183° (S) 02:22:40 437.500
AUBIESAT-1 29 Nov 02:22:16 02:23:33 11° 267° (W) 02:24:52 437.475
BEESAT 29 Nov 02:24:17 02:27:47 20° 266° (W) 02:31:18 436.000
YUBILEINY 29 Nov 02:28:08 02:36:47 65° 92° (E) 02:45:26 435.215
PCSat 29 Nov 02:42:14 02:42:33 10° 38° (NE) 02:42:52 145.827
ITAMSAT 1 29 Nov 02:43:08 02:48:15 59° 101° (E) 02:53:19 435.822/435.867
STARS 29 Nov 02:45:27 02:49:51 77° 257° (WSW) 02:54:15 437.465
HORYU 2 29 Nov 03:08:24 03:12:01 24° 95° (E) 03:15:38 437.375
BEESAT 2 29 Nov 03:11:25 03:11:57 10° 40° (NE) 03:12:30 435.950
AO-7 29 Nov 03:17:27 03:21:59 15° 90° (E) 03:26:29 29.400- 29.500
Oscar 19 29 Nov 03:22:49 03:26:50 23° 294° (WNW) 03:30:51 437.125/150
MOZHAYETS 4 29 Nov 03:27:47 03:29:27 12° 62° (ENE) 03:31:07
ISS 29 Nov 03:31:45 03:33:42 15° 18° (NNE) 03:35:38 145.825
Gurwin Techsat 1B 29 Nov 03:34:32 03:39:51 79° 285° (WNW) 03:45:09 435.225
KKS-1 29 Nov 03:35:13 03:37:53 16° 267° (W) 03:40:33 437.445
SO-50 29 Nov 03:55:39 03:59:59 46° 307° (NW) 04:04:29 436.795
AIST 2 29 Nov 03:59:10 04:01:43 15° 44° (NE) 04:04:15 435.215
PCSat 29 Nov 04:21:50 04:27:11 56° 58° (ENE) 04:32:30 145.827
ITAMSAT 1 29 Nov 04:23:59 04:27:14 17° 297° (WNW) 04:30:28 435.822/435.867
YUBILEINY 29 Nov 04:27:07 04:34:12 27° 292° (WNW) 04:41:19 435.215
BEESAT 3 29 Nov 04:28:31 04:32:38 54° 56° (NE) 04:36:42 437.485
HORYU 2 29 Nov 04:44:45 04:48:41 31° 291° (WNW) 04:52:37 437.375
BEESAT 2 29 Nov 04:46:45 04:50:58 77° 58° (ENE) 04:55:07 435.950
O/OREOS (USA 219) 29 Nov 04:56:57 05:00:35 25° 102° (ESE) 05:04:13 437.305
PRISM 29 Nov 05:01:10 05:04:17 20° 67° (ENE) 05:07:26 437.425
MOZHAYETS 4 29 Nov 05:01:28 05:06:03 71° 259° (WSW) 05:10:41
AO-7 29 Nov 05:07:23 05:15:49 85° 107° (ESE) 05:24:11 29.400- 29.500
ISS 29 Nov 05:07:34 05:10:51 65° 36° (NE) 05:14:07 145.825
CUBESAT XI-V 29 Nov 05:18:16 05:20:25 13° 63° (ENE) 05:22:35 437.345
JAS-2 29 Nov 05:25:19 05:31:53 47° 97° (E) 05:37:39 435.910
STRAND 1 29 Nov 05:31:16 05:34:53 20° 64° (ENE) 05:38:31 437.568
AIST 2 29 Nov 05:36:31 05:40:47 65° 242° (WSW) 05:44:59 435.215
Cubesat XI-IV 29 Nov 05:49:50 05:53:17 17° 92° (E) 05:56:42 437.490
PCSat 29 Nov 06:06:25 06:10:07 19° 255° (WSW) 06:13:48 145.827
BEESAT 3 29 Nov 06:08:26 06:10:22 13° 252° (WSW) 06:12:18 437.485
CUTE-I 29 Nov 06:29:02 06:34:02 40° 98° (E) 06:38:59 437.470
GONETS M04 29 Nov 06:29:28 06:32:23 12° 74° (ENE) 06:35:18
PRISM 29 Nov 06:35:51 06:39:37 32° 262° (W) 06:43:26 437.425
O/OREOS (USA 219) 29 Nov 06:35:56 06:39:50 29° 299° (WNW) 06:43:45 437.305
ISS 29 Nov 06:45:41 06:47:05 12° 232° (SW) 06:48:30 145.825
CUBESAT XI-V 29 Nov 06:52:35 06:57:17 66° 259° (W) 07:02:00 437.345
AO-7 29 Nov 07:01:38 07:07:36 22° 306° (NW) 07:13:34 29.400- 29.500
STRAND 1 29 Nov 07:08:42 07:13:41 50° 260° (W) 07:18:41 437.568
AIST 1 29 Nov 07:08:52 07:13:13 68° 265° (W) 07:17:30
JAS-2 29 Nov 07:10:49 07:16:33 29° 298° (WNW) 07:21:45 435.910
Cubesat XI-IV 29 Nov 07:28:30 07:33:42 55° 288° (WNW) 07:38:51 437.490
CUTE-I 29 Nov 08:09:37 08:13:51 25° 295° (WNW) 08:18:04 437.470
GONETS M04 29 Nov 08:18:45 08:27:29 73° 93° (E) 08:36:18
BRITE-PL 29 Nov 08:36:33 08:39:00 15° 93° (E) 08:41:29 437.365/2234.400
COMPASS 1 29 Nov 08:50:02 08:52:46 17° 93° (E) 08:55:30 437.405
CANX-2 29 Nov 08:54:59 08:58:44 29° 96° (E) 09:02:28 2200.000
DX 1 29 Nov 09:15:10 09:16:33 11° 91° (E) 09:17:55 434.975-435.025
HO-68 29 Nov 09:24:57 09:32:03 61° 102° (ESE) 09:39:06 435.675
GOMX 1 29 Nov 09:26:35 09:30:34 40° 99° (E) 09:34:40 467.674
CUBEBUG 2 29 Nov 09:27:18 09:28:30 11° 91° (E) 09:29:42 437.445
CUTE 1.7 + AOD 2 29 Nov 09:28:45 09:33:02 65° 101° (E) 09:37:18 437.475
POPSAT HIP 1 29 Nov 09:37:47 09:40:13 15° 65° (ENE) 09:42:38 437.405
ZACube-1 29 Nov 09:46:04 09:48:11 13° 92° (E) 09:50:19 437.345
TIGRISAT 29 Nov 09:51:13 09:54:55 30° 70° (ENE) 09:58:37 435.000
DELFI C3 29 Nov 09:53:39 09:57:23 32° 97° (E) 10:01:05 145.870
SEEDS 29 Nov 09:57:09 10:01:24 68° 284° (WNW) 10:05:39 437.485
VELOX 1 29 Nov 10:00:53 10:02:20 11° 91° (E) 10:03:46 145.980
DOVE 4 29 Nov 10:05:31 10:09:45 86° 103° (ESE) 10:14:09 437.250
UNISAT 6 29 Nov 10:06:31 10:10:35 45° 73° (ENE) 10:14:40 437.425
AAUSAT CUBESAT 2 29 Nov 10:06:34 10:10:48 71° 284° (WNW) 10:15:01 437.432
UKube-1 29 Nov 10:09:35 10:13:47 47° 100° (E) 10:17:57 .
POLYITAN 1 29 Nov 10:11:56 10:15:48 36° 71° (ENE) 10:19:41 437.675
QB50P2 29 Nov 10:12:26 10:16:19 36° 71° (ENE) 10:20:13 145.880/145.840
BRITE-PL 29 Nov 10:13:50 10:17:42 39° 287° (WNW) 10:21:40 437.365/2234.400
CINEMA 3 29 Nov 10:14:29 10:18:44 64° 101° (E) 10:23:08 145.822/145.860
DUCHIFAT 1 29 Nov 10:15:56 10:19:53 39° 72° (ENE) 10:23:50 145.980
Oscar 11 29 Nov 10:17:59 10:22:21 75° 102° (ESE) 10:26:42 145.826/435.025
GONETS M04 29 Nov 10:18:24 10:25:08 24° 293° (WNW) 10:31:56
FUNcube-1 29 Nov 10:18:38 10:22:27 31° 97° (E) 10:26:20 145.935
COMPASS 1 29 Nov 10:24:41 10:28:39 38° 288° (WNW) 10:32:35 437.405
AISAT 29 Nov 10:27:35 10:31:11 24° 96° (E) 10:34:46 437.250
CANX-2 29 Nov 10:31:07 10:34:31 23° 291° (WNW) 10:37:55 2200.000
ANTELSAT 29 Nov 10:35:30 10:39:46 82° 257° (WSW) 10:44:04 437.575/2403.000
NANOSAT C BR1 29 Nov 10:35:41 10:39:54 67° 75° (ENE) 10:44:07 145.865
HUMSAT D 29 Nov 10:36:30 10:40:11 29° 97° (E) 10:43:54 437.325/437.525
BUGSAT 1 29 Nov 10:37:25 10:41:36 58° 74° (ENE) 10:45:44 437.445
QB50P1 29 Nov 10:46:05 10:50:20 89° 77° (ENE) 10:54:36 145.935-145.965
SO-50 29 Nov 10:48:28 10:51:42 17° 43° (NE) 10:54:57 436.795
DX 1 29 Nov 10:48:52 10:53:09 58° 286° (WNW) 10:57:23 434.975-435.025
UWE-3 29 Nov 10:53:43 10:58:01 85° 283° (WNW) 11:02:25 435.000/436.395/437.385
CUBEBUG 2 29 Nov 11:01:18 11:05:31 60° 285° (WNW) 11:09:52 437.445
GOMX 1 29 Nov 11:05:52 11:08:25 16° 293° (WNW) 11:11:01 467.674
CUTE 1.7 + AOD 2 29 Nov 11:07:07 11:08:24 11° 297° (WNW) 11:09:41 437.475
POPSAT HIP 1 29 Nov 11:11:39 11:15:44 45° 261° (W) 11:19:49 437.405
HO-68 29 Nov 11:13:34 11:19:13 26° 300° (WNW) 11:24:51 435.675
ZACube-1 29 Nov 11:20:40 11:24:48 49° 286° (WNW) 11:29:00 437.345
TIGRISAT 29 Nov 11:28:27 11:31:41 21° 265° (W) 11:34:57 435.000
DELFI C3 29 Nov 11:29:27 11:32:27 20° 292° (WNW) 11:35:27 145.870
VELOX 1 29 Nov 11:34:56 11:39:17 60° 286° (WNW) 11:43:37 145.980
50 SAT 29 Nov 11:35:20 11:39:23 66° 285° (WNW) 11:43:27 437.505
SPROUT 29 Nov 11:38:27 11:38:57 10° 90° (E) 11:39:28 437.525
UNISAT 6 29 Nov 11:45:23 11:47:37 14° 268° (W) 11:49:52 437.425
ESTCUBE 1 29 Nov 11:46:43 11:51:15 69° 102° (ESE) 11:55:44 437.505/2401.250
UKube-1 29 Nov 11:47:03 11:49:33 15° 296° (WNW) 11:52:02 .
POLYITAN 1 29 Nov 11:48:58 11:51:52 18° 266° (W) 11:54:46 437.675
QB50P2 29 Nov 11:49:29 11:52:21 18° 266° (W) 11:55:14 145.880/145.840
DUCHIFAT 1 29 Nov 11:53:13 11:55:54 16° 267° (W) 11:58:36 145.980
CINEMA 3 29 Nov 11:54:11 11:55:27 11° 296° (WNW) 11:56:44 145.822/145.860
FUNcube-1 29 Nov 11:55:23 11:58:38 21° 292° (WNW) 12:01:55 145.935
Oscar 11 29 Nov 11:57:32 11:57:53 10° 298° (WNW) 11:58:15 145.826/435.025
CUBEBUG 1 29 Nov 12:02:23 12:06:46 82° 284° (WNW) 12:11:05 437.445
AISAT 29 Nov 12:04:00 12:07:47 29° 291° (WNW) 12:11:34 437.250
HUMSAT D 29 Nov 12:12:37 12:15:50 22° 292° (WNW) 12:19:04 437.325/437.525
BUGSAT 1 29 Nov 12:16:14 12:17:25 11° 269° (W) 12:18:36 437.445
VERMONT LUNAR 29 Nov 12:20:45 12:23:09 17° 147° (SSE) 12:25:35 437.305
PHONESAT 2.4 29 Nov 12:25:48 12:27:39 13° 144° (SE) 12:29:30 2401.200-2431.200
SO-50 29 Nov 12:27:53 12:32:46 72° 241° (WSW) 12:37:38 436.795
YUBILEINY 29 Nov 12:40:15 12:47:39 30° 70° (ENE) 12:54:58 435.215
BEESAT 29 Nov 12:49:25 12:50:42 11° 90° (E) 12:51:59 436.000
TISAT 1 29 Nov 12:49:27 12:53:41 83° 103° (ESE) 12:57:53 437.305
Oscar 19 29 Nov 12:58:42 13:03:39 54° 72° (ENE) 13:08:38 437.125/150
SPROUT 29 Nov 13:11:12 13:15:26 62° 285° (WNW) 13:19:39 437.525
CUSAT 1 29 Nov 13:12:25 13:14:59 52° 281° (W) 13:17:34 437.405
Gurwin Techsat 1B 29 Nov 13:16:50 13:20:25 19° 63° (ENE) 13:23:59 435.225
ESTCUBE 1 29 Nov 13:25:54 13:27:31 12° 298° (WNW) 13:29:09 437.505/2401.250
ITUPSAT 1 29 Nov 13:44:43 13:49:18 43° 99° (E) 13:53:51 437.325
SWISSCUBE 29 Nov 13:54:01 13:58:46 60° 101° (E) 14:03:29 437.505
DANDE 29 Nov 13:56:36 13:58:05 14° 286° (WNW) 13:59:33 436.750
VERMONT LUNAR 29 Nov 13:57:38 14:01:13 66° 162° (SSE) 14:04:48 437.305
ITAMSAT 1 29 Nov 13:59:59 14:05:11 80° 75° (ENE) 14:10:25 435.822/435.867
PHONESAT 2.4 29 Nov 14:02:19 14:05:56 54° 159° (SSE) 14:09:34 2401.200-2431.200
AUBIESAT-1 29 Nov 14:02:28 14:07:21 66° 106° (ESE) 14:12:01 437.475
HORYU 2 29 Nov 14:06:38 14:09:51 20° 66° (ENE) 14:13:04 437.375
M-CUBED/EXP-1 PRIME 29 Nov 14:10:25 14:15:23 86° 108° (ESE) 14:20:07 437.505
AO-7 29 Nov 14:15:18 14:21:20 23° 54° (NE) 14:27:23 29.400- 29.500
BEESAT 29 Nov 14:24:14 14:29:02 71° 285° (WNW) 14:33:46 436.000
RS-15 29 Nov 14:28:24 14:37:00 28° 103° (ESE) 14:45:31 29.354- 29.394
YUBILEINY 29 Nov 14:36:26 14:44:52 57° 269° (W) 14:53:16 435.215
STARS 29 Nov 14:37:28 14:40:49 21° 95° (E) 14:44:09 437.465
Oscar 19 29 Nov 14:40:05 14:43:18 17° 268° (W) 14:46:32 437.125/150
MaSat-1 29 Nov 14:53:16 14:56:05 49° 296° (WNW) 14:58:42 437.345
Gurwin Techsat 1B 29 Nov 14:54:42 14:59:54 56° 260° (W) 15:05:08 435.225
O/OREOS (USA 219) 29 Nov 15:07:06 15:11:20 40° 64° (ENE) 15:15:33 437.305
ITUPSAT 1 29 Nov 15:23:27 15:26:52 20° 295° (WNW) 15:30:16 437.325
KKS-1 29 Nov 15:25:30 15:29:56 74° 285° (WNW) 15:34:21 437.445
SWISSCUBE 29 Nov 15:33:30 15:36:06 15° 297° (WNW) 15:38:41 437.505
JAS-2 29 Nov 15:35:34 15:41:25 24° 60° (ENE) 15:47:16 435.910
VERMONT LUNAR 29 Nov 15:36:06 15:39:43 69° 358° (N) 15:43:20 437.305
AUBIESAT-1 29 Nov 15:38:52 15:41:44 16° 302° (WNW) 15:44:33 437.475
PHONESAT 2.4 29 Nov 15:40:59 15:44:42 72° 355° (N) 15:48:25 2401.200-2431.200
HORYU 2 29 Nov 15:42:12 15:46:16 36° 262° (W) 15:50:22 437.375
ITAMSAT 1 29 Nov 15:43:48 15:45:15 11° 270° (W) 15:46:41 435.822/435.867
M-CUBED/EXP-1 PRIME 29 Nov 15:47:39 15:49:39 12° 304° (NW) 15:51:37 437.505
AO-7 29 Nov 16:04:53 16:13:11 82° 253° (WSW) 16:21:33 29.400- 29.500
STARS 29 Nov 16:13:25 16:17:21 32° 290° (WNW) 16:21:15 437.465
RS-15 29 Nov 16:37:15 16:48:13 75° 304° (WNW) 16:59:13 29.354- 29.394
O/OREOS (USA 219) 29 Nov 16:47:25 16:50:23 18° 260° (W) 16:53:21 437.305
MOZHAYETS 4 29 Nov 16:58:15 17:02:21 30° 96° (E) 17:06:25
Cubesat XI-IV 29 Nov 17:10:34 17:15:00 27° 66° (ENE) 17:19:26 437.490
VERMONT LUNAR 29 Nov 17:14:38 17:18:15 78° 195° (SSW) 17:21:53 437.305
JAS-2 29 Nov 17:17:54 17:25:36 76° 258° (WSW) 17:33:29 435.910
PHONESAT 2.4 29 Nov 17:19:52 17:23:36 89° 193° (SSW) 17:27:19 2401.200-2431.200
CUTE-I 29 Nov 17:49:47 17:55:03 61° 73° (ENE) 18:00:19 437.470
AO-7 29 Nov 18:02:58 18:07:04 14° 271° (W) 18:11:13 29.400- 29.500
PRISM 29 Nov 18:19:56 18:23:53 37° 98° (E) 18:27:47 437.425
BEESAT 3 29 Nov 18:24:38 18:26:39 13° 108° (ESE) 18:28:41 437.485
GONETS M04 29 Nov 18:30:55 18:38:44 34° 71° (ENE) 18:46:27
MOZHAYETS 4 29 Nov 18:35:36 18:39:27 26° 292° (WNW) 18:43:16
BEESAT 2 29 Nov 18:42:25 18:45:22 19° 111° (ESE) 18:48:21 435.950
Cubesat XI-IV 29 Nov 18:49:58 18:54:54 37° 262° (W) 18:59:51 437.490
CUBESAT XI-V 29 Nov 18:50:59 18:55:11 33° 97° (E) 18:59:20 437.345
VERMONT LUNAR 29 Nov 18:53:33 18:56:25 22° 211° (SSW) 18:59:15 437.305
RS-15 29 Nov 18:54:13 19:02:48 25° 331° (NNW) 19:11:31 29.354- 29.394
PHONESAT 2.4 29 Nov 18:58:55 19:02:10 28° 208° (SSW) 19:05:23 2401.200-2431.200
PCSat 29 Nov 19:02:15 19:07:35 65° 115° (ESE) 19:12:58 145.827
JAS-2 29 Nov 19:08:12 19:11:40 13° 275° (W) 19:15:11 435.910
STRAND 1 29 Nov 19:20:13 19:25:17 61° 101° (ESE) 19:30:17 437.568
CUTE-I 29 Nov 19:32:18 19:35:30 16° 268° (W) 19:38:43 437.470
AIST 2 29 Nov 19:34:09 19:37:58 34° 114° (ESE) 19:41:51 435.215
AIST 1 29 Nov 19:37:02 19:41:25 75° 96° (E) 19:45:50
COMPASS 1 29 Nov 19:43:01 19:44:01 11° 63° (ENE) 19:45:01 437.405
BRITE-PL 29 Nov 19:46:30 19:49:52 19° 68° (ENE) 19:53:05 437.365/2234.400
CANX-2 29 Nov 19:48:02 19:51:00 19° 67° (ENE) 19:54:00 2200.000
HO-68 29 Nov 19:52:20 19:58:57 42° 65° (ENE) 20:05:34 435.675
PRISM 29 Nov 19:56:17 19:59:08 18° 294° (WNW) 20:01:58 437.425
BEESAT 3 29 Nov 20:00:24 20:04:24 51° 305° (NW) 20:08:28 437.485
BEESAT 2 29 Nov 20:19:33 20:23:23 37° 307° (NW) 20:27:17 435.950
CUTE 1.7 + AOD 2 29 Nov 20:20:59 20:24:55 40° 72° (ENE) 20:28:53 437.475
GONETS M04 29 Nov 20:27:23 20:35:48 51° 271° (W) 20:44:07
CUBESAT XI-V 29 Nov 20:28:46 20:32:26 23° 292° (WNW) 20:36:04 437.345
GOMX 1 29 Nov 20:33:56 20:38:18 41° 73° (ENE) 20:42:26 467.674
